Weather History for East Milton, MA

Change the Weather History Date:

Tuesday, January 15, 2013

  Actual Average (KBOS) Record (KBOS)
Temperature  
Mean Temperature 36 °F 29 °F  
Max Temperature 39 °F 35 °F 66 °F (1995)
Min Temperature 34 °F 22 °F -12 °F (1957)
Degree Days  
Heating Degree Days 28 36  
Month to date heating degree days 536  
Since 1 July heating degree days 2530  
Cooling Degree Days 0 0  
Month to date cooling degree days 0  
Year to date cooling degree days 0  
Moisture  
Dew Point 24 °F    
Average Humidity 59    
Maximum Humidity 76    
Minimum Humidity 53    
Precipitation  
Precipitation 0.01 in 0.12 in 1.79 in (1958)
Month to date precipitation 1.66  
Year to date precipitation 1.66  
Sea Level Pressure  
Sea Level Pressure 30.27 in    
Wind  
Wind Speed 6 mph (NNW)    
Max Wind Speed 10 mph    
Max Gust Speed -    
T = Trace of Precipitation, MM = Missing Value Source: NWS Daily Summary

Daily Weather History Graph

Daily Weather History Graph

Search for Another Location

Airport:

Trip Planner

Search our weather history database for the weather conditions in past years. The results will help you decide how hot, cold, wet, or windy it might be!

Date:

Astronomy

Jan. 15, 2013 Rise Set
Actual Time 7:10 AM EST 4:37 PM EST
Civil Twilight 6:39 AM EST 5:08 PM EST
Nautical Twilight 6:04 AM EST 5:43 PM EST
Astronomical Twilight 5:31 AM EST 6:16 PM EST
Moon 9:08 AM EST (1/15) 9:30 PM EST (1/15)
Length of Visible Light 10h 29m
Length of Day
9h 27m
Waxing Crescent, 19% of the Moon is Illuminated
Jan 15
Waxing Crescent
Jan 18
First Quarter
Jan 26
Full
Feb 3
Last Quarter
Feb 10
New

Hourly Weather History & Observations

Time (EST) Temp. Windchill Dew Point Humidity Pressure Visibility Wind Dir Wind Speed Gust Speed Precip Events Conditions
12:54 AM 39.9 °F 37.8 °F 26.1 °F 58% 30.27 in - North 3.5 mph - N/A   Unknown
1:54 AM 39.0 °F 34.0 °F 25.0 °F 57% 30.27 in - North 6.9 mph - N/A   Unknown
2:54 AM 36.0 °F 30.3 °F 28.9 °F 76% 30.26 in - North 6.9 mph - 0.01 in   Unknown
3:54 AM 37.0 °F 31.6 °F 25.0 °F 62% 30.24 in - NNW 6.9 mph - N/A   Unknown
4:54 AM 37.0 °F 32.4 °F 24.1 °F 59% 30.23 in - North 5.8 mph - N/A   Unknown
5:54 AM 35.1 °F 28.6 °F 24.1 °F 64% 30.25 in - North 8.1 mph - N/A   Unknown
6:54 AM 35.1 °F 28.6 °F 23.0 °F 61% 30.28 in - NNW 8.1 mph - N/A   Unknown
7:54 AM 34.0 °F 26.0 °F 23.0 °F 64% 30.30 in - NNW 10.4 mph - N/A   Unknown
8:54 AM 36.0 °F 29.0 °F 24.1 °F 62% 30.31 in - North 9.2 mph - N/A   Unknown
9:54 AM 37.0 °F 31.6 °F 23.0 °F 57% 30.32 in - NNW 6.9 mph - N/A   Unknown
10:54 AM 39.0 °F 34.8 °F 24.1 °F 55% 30.31 in - NW 5.8 mph - N/A   Unknown
11:54 AM 39.0 °F 36.8 °F 24.1 °F 55% 30.29 in - North 3.5 mph - N/A   Unknown
12:54 PM 39.0 °F 34.0 °F 24.1 °F 55% 30.27 in - NW 6.9 mph - N/A   Unknown
1:54 PM 39.0 °F 35.7 °F 24.1 °F 55% 30.28 in - NNW 4.6 mph - N/A   Unknown
2:54 PM 39.0 °F - 24.1 °F 55% 30.27 in - Calm Calm - N/A   Unknown
3:54 PM 39.0 °F - 23.0 °F 53% 30.25 in - Calm Calm - N/A   Unknown
4:54 PM 36.0 °F 32.1 °F 23.0 °F 59% 30.27 in - NW 4.6 mph - N/A   Unknown
5:54 PM 35.1 °F 30.1 °F 23.0 °F 61% 30.28 in - NW 5.8 mph - N/A   Unknown
6:54 PM 34.0 °F 28.0 °F 21.9 °F 61% 30.29 in - NW 6.9 mph - N/A   Unknown
7:54 PM 35.1 °F 29.3 °F 21.9 °F 59% 30.29 in - NNW 6.9 mph - N/A   Unknown
8:54 PM 35.1 °F 29.3 °F 21.9 °F 59% 30.27 in - NNE 6.9 mph - N/A   Unknown
9:54 PM 34.0 °F 28.0 °F 21.9 °F 61% 30.27 in - North 6.9 mph - N/A   Unknown
10:54 PM 34.0 °F 28.8 °F 21.0 °F 59% 30.25 in - NE 5.8 mph - N/A   Unknown
11:54 PM 34.0 °F 27.2 °F 21.0 °F 59% 30.25 in - NE 8.1 mph - N/A   Unknown